Connecta IOT-7

operational
NORAD ID: 62715 Int'l Des: 2025-009 Owner: PLNSST Country: TR Constellation: plan-s
LEOCIRCULARRETROGRADESSO

关于 Connecta IOT-7

正在加载描述...

实时位置

正在加载3D地球...

即将过境

高度历史

Altitude vs Time

uPlot chart will show altitude changes over time

两行轨道根数

1 62715U 25009DL 26093.89917857 .00002343 00000-0 22488-3 0 9990
2 62715 97.7098 174.0284 0002872 88.9638 271.1911 14.94035171 66256
Epoch: Apr 3, 2026 • Age: 11 hours

当前状态

高度 604.2 km
速度 7.56 km/s
星下点 -44.80°S, 30.69°E
发射日期 Jan 14, 2025
运行时间 1.2 years
类型 other

技术详情

分类 Payload
质量 10.00 kg
干质量 10.00 kg
总质量 10.00 kg
长度 0.30 m
直径 0.20 m
跨度 0.30 m
形状 Box
制造商 PLNSST
平台类型 Cubesat 6U
阶段状态 In Orbit
所有者/国家 PLNSST/TR

大型星座

Loading constellations...